Location: Waco, TX
(31.5480°N, 97.1670°W)
Time: 01:46:40
(UTC-05:00)

ISS - Pass Details

Date: 13 February 2018
Orbit: 402 x 406 km, 51.6° (Epoch: 21 June)

Event Time Altitude Azimuth Distance (km) Brightness Sun altitude
Rises 11:52:03 0° 252° (WSW) 2,318 0.0 43.6°
Reaches altitude 10° 11:54:26 10° 268° (W) 1,458 -1.0 43.8°
Maximum altitude 11:57:05 22° 322° (NW) 927 -2.2 43.9°
Drops below altitude 10° 11:59:44 10° 17° (NNE) 1,458 -1.3 44.1°
Sets 12:02:06 0° 33° (NNE) 2,318 -0.3 44.2°
